C/2013 G6 ( Lemmon )

Japanese version
Home page
Updated on May 7, 2015

---------------------------------------------------------------------

* Profile

Discovery Date April 13, 2013
Magnitude 18.7 mag
Discoverer J. A. Johnson (Mt. Lemmon Survey)

* Pictures

* Orbital Elements

Epoch 2013 July 7.0 TT = JDT 2456480.5
T 2013 July 25.22897 TT                                 MPC
q   2.0484977            (2000.0)            P               Q
z  +0.0025974      Peri.  215.69260     -0.80804913     +0.09626154
 +/-0.0000014      Node    44.56729     -0.11697399     +0.94069966
e   0.9946792      Incl.  124.08414     -0.57738522     -0.32529659
From 218 observations 2013 Apr. 13-2014 Feb. 5, mean residual 0".5.

* Finding Charts

* Magnitudes Graph

        m1 = 0.3 + 5 log d + 40.0 log r(t - 35)

---------------------------------------------------------------------

The orbital elements are published on M.P.E.C. 2014-D14.
The magnitudes graphs are made with Comet for Windows.

---------------------------------------------------------------------

Copyright(C) Seiichi Yoshida (comet@aerith.net). All rights reserved.